Voltar ao catálogo

STARLINK-36249

AtivoComunicaçõesVLEO
NORAD 68532·PAYLOAD·🇺🇸 United States

Lançado Mar 30, 2026 de Cape Canaveral Space Force Station

Loading…

Próximas Passagens (próximas 24 horas)

TLE

AtualizadoSource: CelesTrak SupGP

Época: Sep 14, 2026, 22:57 UTC

1 68532C 26068AA  26257.95673611  .00022619  00000+0  66864-3 0  2575
2 68532  53.1579 325.7445 0001180  86.9615 306.0806 15.34363018    19

Acompanhe STARLINK-36249 em tempo real com AllMySat

Download on the App Store